Year,Month,Day,Hour,Minute,Value (Times are PST for temperature in C)
2016,03,19,00,00,5.00
2016,03,19,00,01,5.00
2016,03,19,00,02,5.00
2016,03,19,00,03,5.00
2016,03,19,00,04,5.10
2016,03,19,00,05,5.10
2016,03,19,00,06,5.10
2016,03,19,00,07,5.10
2016,03,19,00,08,5.10
2016,03,19,00,09,5.10
2016,03,19,00,10,5.10
2016,03,19,00,11,5.10
2016,03,19,00,12,5.10
2016,03,19,00,13,5.10
2016,03,19,00,14,5.10
2016,03,19,00,15,5.10
2016,03,19,00,16,5.10
2016,03,19,00,17,5.10
2016,03,19,00,18,5.20
2016,03,19,00,19,5.20
2016,03,19,00,20,5.20
2016,03,19,00,21,5.20
2016,03,19,00,22,5.20
2016,03,19,00,23,5.20
2016,03,19,00,24,5.20
2016,03,19,00,25,5.20
2016,03,19,00,26,5.20
2016,03,19,00,27,5.20
2016,03,19,00,28,5.20
2016,03,19,00,29,5.20
2016,03,19,00,30,5.20
2016,03,19,00,31,5.20
2016,03,19,00,32,5.20
2016,03,19,00,33,5.30
2016,03,19,00,34,5.20
2016,03,19,00,35,5.30
2016,03,19,00,36,5.30
2016,03,19,00,37,5.30
2016,03,19,00,38,5.30
2016,03,19,00,39,5.30
2016,03,19,00,40,5.30
2016,03,19,00,41,5.30
2016,03,19,00,42,5.30
2016,03,19,00,43,5.30
2016,03,19,00,44,5.30
2016,03,19,00,45,5.30
2016,03,19,00,46,5.20
2016,03,19,00,47,5.20
2016,03,19,00,48,5.20
2016,03,19,00,49,5.20
2016,03,19,00,50,5.20
2016,03,19,00,51,5.20
2016,03,19,00,52,5.20
2016,03,19,00,53,5.20
2016,03,19,00,54,5.20
2016,03,19,00,55,5.20
2016,03,19,00,56,5.20
2016,03,19,00,57,5.20
2016,03,19,00,58,5.20
2016,03,19,00,59,5.20
2016,03,19,01,00,5.20
2016,03,19,01,01,5.20
2016,03,19,01,02,5.20
2016,03,19,01,03,5.20
2016,03,19,01,04,5.20
2016,03,19,01,05,5.20
2016,03,19,01,06,5.20
2016,03,19,01,07,5.20
2016,03,19,01,08,5.20
2016,03,19,01,09,5.20
2016,03,19,01,10,5.20
2016,03,19,01,11,5.20
2016,03,19,01,12,5.20
2016,03,19,01,13,5.20
2016,03,19,01,14,5.20
2016,03,19,01,15,5.20
2016,03,19,01,16,5.20
2016,03,19,01,17,5.20
2016,03,19,01,18,5.20
2016,03,19,01,19,5.20
2016,03,19,01,20,5.20
2016,03,19,01,21,5.20
2016,03,19,01,22,5.20
2016,03,19,01,23,5.20
2016,03,19,01,24,5.20
2016,03,19,01,25,5.20
2016,03,19,01,26,5.20
2016,03,19,01,27,5.20
2016,03,19,01,28,5.20
2016,03,19,01,29,5.20
2016,03,19,01,30,5.20
2016,03,19,01,31,5.20
2016,03,19,01,32,5.20
2016,03,19,01,33,5.20
2016,03,19,01,34,5.20
2016,03,19,01,35,5.20
2016,03,19,01,36,5.20
2016,03,19,01,37,5.10
2016,03,19,01,38,5.10
2016,03,19,01,39,5.10
2016,03,19,01,40,5.10
2016,03,19,01,41,5.10
2016,03,19,01,42,5.10
2016,03,19,01,43,5.10
2016,03,19,01,44,5.10
2016,03,19,01,45,5.10
2016,03,19,01,49,5.10
2016,03,19,01,50,5.10
2016,03,19,01,51,5.10
2016,03,19,01,52,5.10
2016,03,19,01,53,5.10
2016,03,19,01,54,5.10
2016,03,19,01,55,5.10
2016,03,19,01,56,5.10
2016,03,19,01,57,5.10
2016,03,19,01,58,5.10
2016,03,19,01,59,5.10
2016,03,19,02,00,5.10
2016,03,19,02,01,5.10
2016,03,19,02,02,5.10
2016,03,19,02,03,5.10
2016,03,19,02,04,5.10
2016,03,19,02,05,5.10
2016,03,19,02,06,5.10
2016,03,19,02,07,5.10
2016,03,19,02,08,5.10
2016,03,19,02,09,5.10
2016,03,19,02,10,5.10
2016,03,19,02,11,5.10
2016,03,19,02,12,5.10
2016,03,19,02,13,5.10
2016,03,19,02,14,5.10
2016,03,19,02,15,5.10
2016,03,19,02,16,5.10
2016,03,19,02,17,5.00
2016,03,19,02,18,5.00
2016,03,19,02,19,5.00
2016,03,19,02,20,5.00
2016,03,19,02,21,5.00
2016,03,19,02,22,5.00
2016,03,19,02,23,5.00
2016,03,19,02,24,5.00
2016,03,19,02,25,5.00
2016,03,19,02,26,5.00
2016,03,19,02,27,5.00
2016,03,19,02,28,5.00
2016,03,19,02,29,5.00
2016,03,19,02,30,4.90
2016,03,19,02,31,4.90
2016,03,19,02,32,4.90
2016,03,19,02,33,4.90
2016,03,19,02,34,4.90
2016,03,19,02,35,4.90
2016,03,19,02,36,4.90
2016,03,19,02,37,4.90
2016,03,19,02,38,4.90
2016,03,19,02,39,4.90
2016,03,19,02,40,4.90
2016,03,19,02,41,4.90
2016,03,19,02,42,4.90
2016,03,19,02,43,4.90
2016,03,19,02,44,4.90
2016,03,19,02,45,4.80
2016,03,19,02,46,4.80
2016,03,19,02,47,4.80
2016,03,19,02,48,4.80
2016,03,19,02,49,4.80
2016,03,19,02,50,4.80
2016,03,19,02,51,4.80
2016,03,19,02,52,4.80
2016,03,19,02,53,4.80
2016,03,19,02,54,4.80
2016,03,19,02,55,4.80
2016,03,19,02,56,4.80
2016,03,19,02,57,4.80
2016,03,19,02,58,4.80
2016,03,19,02,59,4.80
2016,03,19,03,00,4.80
2016,03,19,03,01,4.80
2016,03,19,03,02,4.80
2016,03,19,03,03,4.80
2016,03,19,03,04,4.80
2016,03,19,03,05,4.80
2016,03,19,03,06,4.80
2016,03,19,03,07,4.80
2016,03,19,03,08,4.80
2016,03,19,03,09,4.80
2016,03,19,03,10,4.80
2016,03,19,03,11,4.80
2016,03,19,03,12,4.80
2016,03,19,03,13,4.80
2016,03,19,03,14,4.80
2016,03,19,03,15,4.80
2016,03,19,03,16,4.80
2016,03,19,03,17,4.80
2016,03,19,03,18,4.80
2016,03,19,03,19,4.80
2016,03,19,03,20,4.80
2016,03,19,03,21,4.80
2016,03,19,03,22,4.80
2016,03,19,03,23,4.80
2016,03,19,03,24,4.80
2016,03,19,03,25,4.80
2016,03,19,03,26,4.70
2016,03,19,03,27,4.80
2016,03,19,03,28,4.80
2016,03,19,03,29,4.80
2016,03,19,03,30,4.80
2016,03,19,03,31,4.80
2016,03,19,03,32,4.80
2016,03,19,03,33,4.80
2016,03,19,03,34,4.80
2016,03,19,03,35,4.80
2016,03,19,03,36,4.80
2016,03,19,03,37,4.80
2016,03,19,03,38,4.80
2016,03,19,03,39,4.80
2016,03,19,03,40,4.80
2016,03,19,03,41,4.80
2016,03,19,03,42,4.80
2016,03,19,03,43,4.70
2016,03,19,03,44,4.70
2016,03,19,03,45,4.70
2016,03,19,03,46,4.70
2016,03,19,03,47,4.70
2016,03,19,03,48,4.70
2016,03,19,03,49,4.70
2016,03,19,03,50,4.70
2016,03,19,03,51,4.70
2016,03,19,03,52,4.70
2016,03,19,03,53,4.70
2016,03,19,03,54,4.70
2016,03,19,03,55,4.70
2016,03,19,03,56,4.70
2016,03,19,03,57,4.70
2016,03,19,03,58,4.70
2016,03,19,03,59,4.70
2016,03,19,04,00,4.70
2016,03,19,04,01,4.70
2016,03,19,04,02,4.70
2016,03,19,04,03,4.70
2016,03,19,04,04,4.70
2016,03,19,04,05,4.70
2016,03,19,04,06,4.70
2016,03,19,04,07,4.70
2016,03,19,04,08,4.70
2016,03,19,04,09,4.70
2016,03,19,04,10,4.70
2016,03,19,04,11,4.70
2016,03,19,04,12,4.70
2016,03,19,04,13,4.70
2016,03,19,04,14,4.70
2016,03,19,04,15,4.70
2016,03,19,04,16,4.70
2016,03,19,04,17,4.70
2016,03,19,04,18,4.70
2016,03,19,04,19,4.70
2016,03,19,04,20,4.70
2016,03,19,04,21,4.70
2016,03,19,04,22,4.70
2016,03,19,04,23,4.70
2016,03,19,04,24,4.70
2016,03,19,04,25,4.70
2016,03,19,04,26,4.70
2016,03,19,04,27,4.70
2016,03,19,04,28,4.70
2016,03,19,04,29,4.70
2016,03,19,04,30,4.70
2016,03,19,04,31,4.70
2016,03,19,04,32,4.70
2016,03,19,04,33,4.70
2016,03,19,04,34,4.60
2016,03,19,04,35,4.60
2016,03,19,04,36,4.60
2016,03,19,04,37,4.60
2016,03,19,04,38,4.60
2016,03,19,04,39,4.60
2016,03,19,04,40,4.60
2016,03,19,04,41,4.60
2016,03,19,04,42,4.60
2016,03,19,04,43,4.60
2016,03,19,04,44,4.60
2016,03,19,04,45,4.70
2016,03,19,04,46,4.70
2016,03,19,04,47,4.70
2016,03,19,04,48,4.70
2016,03,19,04,49,4.70
2016,03,19,04,50,4.70
2016,03,19,04,51,4.70
2016,03,19,04,52,4.70
2016,03,19,04,53,4.70
2016,03,19,04,54,4.70
2016,03,19,04,55,4.70
2016,03,19,04,56,4.70
2016,03,19,04,57,4.70
2016,03,19,04,58,4.70
2016,03,19,04,59,4.70
2016,03,19,05,00,4.70
2016,03,19,05,01,4.70
2016,03,19,05,02,4.70
2016,03,19,05,03,4.70
2016,03,19,05,04,4.70
2016,03,19,05,05,4.70
2016,03,19,05,06,4.70
2016,03,19,05,07,4.70
2016,03,19,05,08,4.70
2016,03,19,05,09,4.70
2016,03,19,05,10,4.70
2016,03,19,05,11,4.70
2016,03,19,05,12,4.70
2016,03,19,05,13,4.70
2016,03,19,05,14,4.70
2016,03,19,05,15,4.70
2016,03,19,05,16,4.70
2016,03,19,05,17,4.70
2016,03,19,05,18,4.70
2016,03,19,05,19,4.70
2016,03,19,05,20,4.80
2016,03,19,05,21,4.80
2016,03,19,05,22,4.80
2016,03,19,05,23,4.80
2016,03,19,05,24,4.80
2016,03,19,05,25,4.80
2016,03,19,05,26,4.80
2016,03,19,05,27,4.80
2016,03,19,05,28,4.90
2016,03,19,05,29,4.90
2016,03,19,05,30,4.90
2016,03,19,05,31,4.90
2016,03,19,05,32,4.90
2016,03,19,05,33,4.90
2016,03,19,05,34,4.90
2016,03,19,05,35,5.00
2016,03,19,05,36,5.00
2016,03,19,05,37,5.00
2016,03,19,05,38,5.00
2016,03,19,05,39,5.00
2016,03,19,05,40,5.10
2016,03,19,05,41,5.10
2016,03,19,05,42,5.10
2016,03,19,05,43,5.10
2016,03,19,05,44,5.10
2016,03,19,05,45,5.10
2016,03,19,05,46,5.10
2016,03,19,05,47,5.10
2016,03,19,05,48,5.10
2016,03,19,05,49,5.10
2016,03,19,05,50,5.10
2016,03,19,05,51,5.10
2016,03,19,05,52,5.10
2016,03,19,05,53,5.10
2016,03,19,05,54,5.10
2016,03,19,05,55,5.10
2016,03,19,05,56,5.10
2016,03,19,05,57,5.10
2016,03,19,05,58,5.10
2016,03,19,05,59,5.20
2016,03,19,06,00,5.20
2016,03,19,06,01,5.20
2016,03,19,06,02,5.20
2016,03,19,06,03,5.20
2016,03,19,06,04,5.20
2016,03,19,06,05,5.20
2016,03,19,06,06,5.20
2016,03,19,06,07,5.30
2016,03,19,06,08,5.30
2016,03,19,06,09,5.30
2016,03,19,06,10,5.30
2016,03,19,06,11,5.40
2016,03,19,06,12,5.40
2016,03,19,06,13,5.50
2016,03,19,06,14,5.50
2016,03,19,06,15,5.60
2016,03,19,06,16,5.60
2016,03,19,06,17,5.70
2016,03,19,06,18,5.80
2016,03,19,06,19,5.90
2016,03,19,06,20,6.00
2016,03,19,06,21,6.10
2016,03,19,06,22,6.20
2016,03,19,06,23,6.30
2016,03,19,06,24,6.40
2016,03,19,06,25,6.40
2016,03,19,06,26,6.50
2016,03,19,06,27,6.50
2016,03,19,06,28,6.60
2016,03,19,06,29,6.60
2016,03,19,06,30,6.70
2016,03,19,06,31,6.70
2016,03,19,06,32,6.70
2016,03,19,06,33,6.70
2016,03,19,06,34,6.70
2016,03,19,06,35,6.70
2016,03,19,06,36,6.70
2016,03,19,06,37,6.80
2016,03,19,06,38,6.80
2016,03,19,06,39,6.80
2016,03,19,06,40,6.80
2016,03,19,06,41,6.80
2016,03,19,06,42,6.90
2016,03,19,06,43,6.90
2016,03,19,06,44,6.90
2016,03,19,06,45,6.90
2016,03,19,06,46,6.90
2016,03,19,06,47,7.00
2016,03,19,06,48,7.00
2016,03,19,06,49,7.00
2016,03,19,06,50,7.10
2016,03,19,06,51,7.10
2016,03,19,06,52,7.10
2016,03,19,06,53,7.10
2016,03,19,06,54,7.10
2016,03,19,06,55,7.10
2016,03,19,06,56,7.10
2016,03,19,06,57,7.20
2016,03,19,06,58,7.20
2016,03,19,06,59,7.20
2016,03,19,07,00,7.20
2016,03,19,07,01,7.20
2016,03,19,07,02,7.20
2016,03,19,07,03,7.20
2016,03,19,07,04,7.20
2016,03,19,07,05,7.20
2016,03,19,07,06,7.20
2016,03,19,07,07,7.20
2016,03,19,07,08,7.20
2016,03,19,07,09,7.20
2016,03,19,07,10,7.20
2016,03,19,07,11,7.20
2016,03,19,07,12,7.20
2016,03,19,07,13,7.20
2016,03,19,07,14,7.20
2016,03,19,07,15,7.20
2016,03,19,07,16,7.20
2016,03,19,07,17,7.20
2016,03,19,07,18,7.20
2016,03,19,07,19,7.20
2016,03,19,07,20,7.20
2016,03,19,07,21,7.20
2016,03,19,07,22,7.20
2016,03,19,07,23,7.20
2016,03,19,07,24,7.20
2016,03,19,07,25,7.20
2016,03,19,07,26,7.20
2016,03,19,07,27,7.20
2016,03,19,07,28,7.20
2016,03,19,07,29,7.20
2016,03,19,07,30,7.20
2016,03,19,07,31,7.20
2016,03,19,07,32,7.20
2016,03,19,07,33,7.20
2016,03,19,07,34,7.20
2016,03,19,07,35,7.20
2016,03,19,07,36,7.20
2016,03,19,07,37,7.30
2016,03,19,07,38,7.30
2016,03,19,07,39,7.40
2016,03,19,07,40,7.50
2016,03,19,07,41,7.60
2016,03,19,07,42,7.70
2016,03,19,07,43,7.80
2016,03,19,07,44,7.90
2016,03,19,07,45,7.90
2016,03,19,07,46,8.00
2016,03,19,07,47,8.10
2016,03,19,07,48,8.20
2016,03,19,07,49,8.20
2016,03,19,07,50,8.20
2016,03,19,07,51,8.20
2016,03,19,07,52,8.20
2016,03,19,07,53,8.20
2016,03,19,07,54,8.30
2016,03,19,07,55,8.30
2016,03,19,07,56,8.40
2016,03,19,07,57,8.40
2016,03,19,07,58,8.40
2016,03,19,07,59,8.40
2016,03,19,08,00,8.40
2016,03,19,08,01,8.40
2016,03,19,08,02,8.40
2016,03,19,08,03,8.40
2016,03,19,08,04,8.40
2016,03,19,08,05,8.30
2016,03,19,08,06,8.30
2016,03,19,08,07,8.30
2016,03,19,08,08,8.30
2016,03,19,08,09,8.30
2016,03,19,08,10,8.30
2016,03,19,08,11,8.30
2016,03,19,08,12,8.30
2016,03,19,08,13,8.20
2016,03,19,08,14,8.20
2016,03,19,08,15,8.20
2016,03,19,08,16,8.20
2016,03,19,08,17,8.10
2016,03,19,08,18,8.10
2016,03,19,08,19,8.10
2016,03,19,08,20,8.00
2016,03,19,08,21,8.00
2016,03,19,08,22,8.00
2016,03,19,08,23,8.00
2016,03,19,08,24,8.00
2016,03,19,08,25,8.00
2016,03,19,08,26,7.90
2016,03,19,08,27,7.90
2016,03,19,08,28,7.90
2016,03,19,08,29,7.90
2016,03,19,08,30,7.90
2016,03,19,08,31,7.90
2016,03,19,08,32,7.90
2016,03,19,08,33,7.90
2016,03,19,08,34,7.80
2016,03,19,08,35,7.80
2016,03,19,08,36,7.80
2016,03,19,08,37,7.80
2016,03,19,08,38,7.80
2016,03,19,08,39,7.80
2016,03,19,08,40,7.80
2016,03,19,08,41,7.80
2016,03,19,08,42,7.80
2016,03,19,08,43,7.80
2016,03,19,08,44,7.80
2016,03,19,08,45,7.80
2016,03,19,08,46,7.80
2016,03,19,08,47,7.70
2016,03,19,08,48,7.70
2016,03,19,08,49,7.70
2016,03,19,08,50,7.70
2016,03,19,08,51,7.70
2016,03,19,08,52,7.70
2016,03,19,08,53,7.70
2016,03,19,08,54,7.70
2016,03,19,08,55,7.70
2016,03,19,08,56,7.70
2016,03,19,08,57,7.70
2016,03,19,08,58,7.70
2016,03,19,08,59,7.70
2016,03,19,09,00,7.70
2016,03,19,09,01,7.70
2016,03,19,09,02,7.70
2016,03,19,09,03,7.70
2016,03,19,09,04,7.70
2016,03,19,09,05,7.70
2016,03,19,09,06,7.70
2016,03,19,09,07,7.70
2016,03,19,09,08,7.70
2016,03,19,09,09,7.70
2016,03,19,09,10,7.80
2016,03,19,09,11,7.80
2016,03,19,09,12,7.80
2016,03,19,09,13,7.80
2016,03,19,09,14,7.80
2016,03,19,09,15,7.80
2016,03,19,09,16,7.80
2016,03,19,09,17,7.80
2016,03,19,09,18,7.80
2016,03,19,09,19,7.90
2016,03,19,09,20,7.90
2016,03,19,09,21,7.90
2016,03,19,09,22,7.90
2016,03,19,09,23,7.90
2016,03,19,09,24,7.90
2016,03,19,09,25,8.00
2016,03,19,09,26,8.00
2016,03,19,09,27,8.10
2016,03,19,09,28,8.10
2016,03,19,09,29,8.10
2016,03,19,09,30,8.20
2016,03,19,09,31,8.20
2016,03,19,09,32,8.20
2016,03,19,09,33,8.20
2016,03,19,09,34,8.30
2016,03,19,09,35,8.30
2016,03,19,09,36,8.30
2016,03,19,09,37,8.30
2016,03,19,09,38,8.40
2016,03,19,09,39,8.40
2016,03,19,09,40,8.40
2016,03,19,09,41,8.40
2016,03,19,09,42,8.50
2016,03,19,09,43,8.50
2016,03,19,09,44,8.60
2016,03,19,09,45,8.60
2016,03,19,09,46,8.60
2016,03,19,09,47,8.60
2016,03,19,09,48,8.60
2016,03,19,09,49,8.70
2016,03,19,09,50,8.70
2016,03,19,09,51,8.70
2016,03,19,09,52,8.80
2016,03,19,09,53,8.80
2016,03,19,09,54,8.80
2016,03,19,09,55,8.80
2016,03,19,09,56,8.90
2016,03,19,09,57,8.90
2016,03,19,09,58,9.00
2016,03,19,09,59,9.00
2016,03,19,10,00,9.10
2016,03,19,10,01,9.10
2016,03,19,10,02,9.20
2016,03,19,10,03,9.20
2016,03,19,10,04,9.20
2016,03,19,10,05,9.30
2016,03,19,10,06,9.30
2016,03,19,10,07,9.30
2016,03,19,10,08,9.40
2016,03,19,10,09,9.40
2016,03,19,10,10,9.40
2016,03,19,10,11,9.40
2016,03,19,10,12,9.50
2016,03,19,10,13,9.50
2016,03,19,10,14,9.50
2016,03,19,10,15,9.50
2016,03,19,10,16,9.60
2016,03,19,10,17,9.60
2016,03,19,10,18,9.60
2016,03,19,10,19,9.60
2016,03,19,10,20,9.60
2016,03,19,10,21,9.60
2016,03,19,10,22,9.60
2016,03,19,10,23,9.70
2016,03,19,10,24,9.70
2016,03,19,10,25,9.80
2016,03,19,10,26,9.80
2016,03,19,10,27,9.80
2016,03,19,10,28,9.80
2016,03,19,10,29,9.90
2016,03,19,10,30,9.90
2016,03,19,10,31,9.90
2016,03,19,10,32,9.90
2016,03,19,10,33,10.00
2016,03,19,10,34,10.00
2016,03,19,10,35,10.10
2016,03,19,10,36,10.10
2016,03,19,10,37,10.10
2016,03,19,10,38,10.20
2016,03,19,10,39,10.20
2016,03,19,10,40,10.30
2016,03,19,10,41,10.30
2016,03,19,10,42,10.40
2016,03,19,10,43,10.40
2016,03,19,10,44,10.50
2016,03,19,10,45,10.50
2016,03,19,10,46,10.60
2016,03,19,10,47,10.70
2016,03,19,10,48,10.70
2016,03,19,10,49,10.80
2016,03,19,10,50,10.80
2016,03,19,10,51,10.80
2016,03,19,10,52,10.80
2016,03,19,10,53,10.90
2016,03,19,10,54,10.90
2016,03,19,10,55,10.80
2016,03,19,10,56,10.80
2016,03,19,10,57,10.80
2016,03,19,10,58,10.80
2016,03,19,10,59,10.80
2016,03,19,11,00,10.80
2016,03,19,11,01,10.80
2016,03,19,11,02,10.80
2016,03,19,11,03,10.80
2016,03,19,11,04,10.90
2016,03,19,11,05,11.00
2016,03,19,11,06,11.00
2016,03,19,11,07,11.00
2016,03,19,11,08,11.00
2016,03,19,11,09,11.10
2016,03,19,11,10,11.10
2016,03,19,11,11,11.10
2016,03,19,11,12,11.10
2016,03,19,11,13,11.10
2016,03,19,11,14,11.10
2016,03,19,11,15,11.10
2016,03,19,11,16,11.10
2016,03,19,11,17,11.10
2016,03,19,11,18,11.10
2016,03,19,11,19,11.10
2016,03,19,11,20,11.20
2016,03,19,11,21,11.20
2016,03,19,11,22,11.20
2016,03,19,11,23,11.20
2016,03,19,11,24,11.20
2016,03,19,11,25,11.20
2016,03,19,11,26,11.20
2016,03,19,11,27,11.20
2016,03,19,11,28,11.20
2016,03,19,11,29,11.30
2016,03,19,11,30,11.30
2016,03,19,11,31,11.30
2016,03,19,11,32,11.30
2016,03,19,11,33,11.30
2016,03,19,11,34,11.30
2016,03,19,11,35,11.30
2016,03,19,11,36,11.40
2016,03,19,11,37,11.40
2016,03,19,11,38,11.40
2016,03,19,11,39,11.40
2016,03,19,11,40,11.50
2016,03,19,11,41,11.50
2016,03,19,11,42,11.50
2016,03,19,11,43,11.50
2016,03,19,11,44,11.60
2016,03,19,11,45,11.60
2016,03,19,11,46,11.50
2016,03,19,11,47,11.50
2016,03,19,11,48,11.60
2016,03,19,11,49,11.60
2016,03,19,11,50,11.60
2016,03,19,11,51,11.60
2016,03,19,11,52,11.60
2016,03,19,11,53,11.60
2016,03,19,11,54,11.60
2016,03,19,11,55,11.60
2016,03,19,11,56,11.70
2016,03,19,11,57,11.70
2016,03,19,11,58,11.70
2016,03,19,11,59,11.70
2016,03,19,12,00,11.70
2016,03,19,12,01,11.70
2016,03,19,12,02,11.70
2016,03,19,12,03,11.70
2016,03,19,12,04,11.70
2016,03,19,12,05,11.70
2016,03,19,12,06,11.70
2016,03,19,12,07,11.70
2016,03,19,12,08,11.70
2016,03,19,12,09,11.70
2016,03,19,12,10,11.70
2016,03,19,12,11,11.70
2016,03,19,12,12,11.70
2016,03,19,12,13,11.70
2016,03,19,12,14,11.70
2016,03,19,12,15,11.70
2016,03,19,12,16,11.70
2016,03,19,12,17,11.70
2016,03,19,12,18,11.70
2016,03,19,12,19,11.60
2016,03,19,12,20,11.60
2016,03,19,12,21,11.60
2016,03,19,12,22,11.60
2016,03,19,12,23,11.60
2016,03,19,12,24,11.60
2016,03,19,12,25,11.60
2016,03,19,12,26,11.50
2016,03,19,12,27,11.50
2016,03,19,12,28,11.50
2016,03,19,12,29,11.50
2016,03,19,12,30,11.50
2016,03,19,12,31,11.50
2016,03,19,12,32,11.60
2016,03,19,12,33,11.60
2016,03,19,12,34,11.60
2016,03,19,12,35,11.60
2016,03,19,12,36,11.60
2016,03,19,12,37,11.60
2016,03,19,12,38,11.60
2016,03,19,12,39,11.60
2016,03,19,12,40,11.70
2016,03,19,12,41,11.70
2016,03,19,12,42,11.70
2016,03,19,12,43,11.70
2016,03,19,12,44,11.80
2016,03,19,12,45,11.80
2016,03,19,12,46,11.80
2016,03,19,12,47,11.90
2016,03,19,12,48,12.00
2016,03,19,12,49,12.00
2016,03,19,12,50,12.10
2016,03,19,12,51,12.10
2016,03,19,12,52,12.20
2016,03,19,12,53,12.20
2016,03,19,12,54,12.30
2016,03,19,12,55,12.30
2016,03,19,12,56,12.30
2016,03,19,12,57,12.40
2016,03,19,12,58,12.40
2016,03,19,12,59,12.40
2016,03,19,13,00,12.30
2016,03,19,13,01,12.30
2016,03,19,13,02,12.30
2016,03,19,13,03,12.30
2016,03,19,13,04,12.30
2016,03,19,13,05,12.30
2016,03,19,13,06,12.30
2016,03,19,13,07,12.30
2016,03,19,13,08,12.30
2016,03,19,13,09,12.30
2016,03,19,13,10,12.30
2016,03,19,13,11,12.30
2016,03,19,13,12,12.40
2016,03,19,13,13,12.40
2016,03,19,13,14,12.40
2016,03,19,13,15,12.50
2016,03,19,13,16,12.50
2016,03,19,13,17,12.60
2016,03,19,13,18,12.60
2016,03,19,13,19,12.60
2016,03,19,13,20,12.70
2016,03,19,13,21,12.70
2016,03,19,13,22,12.70
2016,03,19,13,23,12.70
2016,03,19,13,24,12.70
2016,03,19,13,25,12.70
2016,03,19,13,26,12.70
2016,03,19,13,27,12.70
2016,03,19,13,28,12.70
2016,03,19,13,29,12.60
2016,03,19,13,30,12.50
2016,03,19,13,31,12.40
2016,03,19,13,32,12.40
2016,03,19,13,33,12.40
2016,03,19,13,34,12.40
2016,03,19,13,35,12.30
2016,03,19,13,36,12.30
2016,03,19,13,37,12.20
2016,03,19,13,38,12.10
2016,03,19,13,39,12.00
2016,03,19,13,40,11.90
2016,03,19,13,41,11.90
2016,03,19,13,42,11.80
2016,03,19,13,43,11.70
2016,03,19,13,44,11.70
2016,03,19,13,45,11.60
2016,03,19,13,46,11.60
2016,03,19,13,47,11.50
2016,03,19,13,48,11.50
2016,03,19,13,49,11.50
2016,03,19,13,50,11.40
2016,03,19,13,51,11.40
2016,03,19,13,52,11.40
2016,03,19,13,53,11.40
2016,03,19,13,54,11.40
2016,03,19,13,55,11.40
2016,03,19,13,56,11.40
2016,03,19,13,57,11.40
2016,03,19,13,58,11.40
2016,03,19,13,59,11.40
2016,03,19,14,00,11.40
2016,03,19,14,01,11.50
2016,03,19,14,02,11.50
2016,03,19,14,03,11.50
2016,03,19,14,04,11.50
2016,03,19,14,05,11.60
2016,03,19,14,06,11.60
2016,03,19,14,07,11.60
2016,03,19,14,08,11.60
2016,03,19,14,09,11.60
2016,03,19,14,10,11.70
2016,03,19,14,11,11.70
2016,03,19,14,12,11.70
2016,03,19,14,13,11.70
2016,03,19,14,14,11.80
2016,03,19,14,15,11.80
2016,03,19,14,16,11.80
2016,03,19,14,17,11.90
2016,03,19,14,18,11.90
2016,03,19,14,19,11.90
2016,03,19,14,20,11.90
2016,03,19,14,21,11.90
2016,03,19,14,22,11.90
2016,03,19,14,23,11.80
2016,03,19,14,24,11.80
2016,03,19,14,25,11.80
2016,03,19,14,26,11.80
2016,03,19,14,27,11.80
2016,03,19,14,28,11.80
2016,03,19,14,29,11.80
2016,03,19,14,30,11.80
2016,03,19,14,31,11.80
2016,03,19,14,32,11.80
2016,03,19,14,33,11.80
2016,03,19,14,34,11.80
2016,03,19,14,35,11.80
2016,03,19,14,36,11.80
2016,03,19,14,37,11.80
2016,03,19,14,38,11.80
2016,03,19,14,39,11.80
2016,03,19,14,40,11.70
2016,03,19,14,41,11.70
2016,03,19,14,42,11.70
2016,03,19,14,43,11.70
2016,03,19,14,44,11.70
2016,03,19,14,45,11.70
2016,03,19,14,46,11.80
2016,03,19,14,47,11.80
2016,03,19,14,48,11.80
2016,03,19,14,49,11.80
2016,03,19,14,50,11.90
2016,03,19,14,51,11.90
2016,03,19,14,52,11.90
2016,03,19,14,53,11.90
2016,03,19,14,54,11.90
2016,03,19,14,55,11.80
2016,03,19,14,56,11.80
2016,03,19,14,57,11.70
2016,03,19,14,58,11.70
2016,03,19,14,59,11.70
2016,03,19,15,00,11.70
2016,03,19,15,01,11.70
2016,03,19,15,02,11.70
2016,03,19,15,03,11.70
2016,03,19,15,04,11.70
2016,03,19,15,05,11.70
2016,03,19,15,06,11.80
2016,03,19,15,07,11.80
2016,03,19,15,08,11.80
2016,03,19,15,09,11.90
2016,03,19,15,10,11.90
2016,03,19,15,11,11.90
2016,03,19,15,12,11.90
2016,03,19,15,13,12.00
2016,03,19,15,14,12.00
2016,03,19,15,15,12.00
2016,03,19,15,16,12.10
2016,03,19,15,17,12.10
2016,03,19,15,18,12.20
2016,03,19,15,19,12.20
2016,03,19,15,20,12.20
2016,03,19,15,21,12.30
2016,03,19,15,22,12.30
2016,03,19,15,23,12.30
2016,03,19,15,24,12.20
2016,03,19,15,25,12.20
2016,03,19,15,26,12.20
2016,03,19,15,27,12.10
2016,03,19,15,28,12.10
2016,03,19,15,29,12.00
2016,03,19,15,30,11.90
2016,03,19,15,31,11.90
2016,03,19,15,32,11.90
2016,03,19,15,33,11.80
2016,03,19,15,34,11.80
2016,03,19,15,35,11.80
2016,03,19,15,36,11.90
2016,03,19,15,37,11.90
2016,03,19,15,38,11.90
2016,03,19,15,39,12.00
2016,03,19,15,40,12.00
2016,03,19,15,41,12.00
2016,03,19,15,42,12.10
2016,03,19,15,43,12.10
2016,03,19,15,44,12.10
2016,03,19,15,45,12.20
2016,03,19,15,46,12.20
2016,03,19,15,47,12.20
2016,03,19,15,48,12.10
2016,03,19,15,49,12.10
2016,03,19,15,50,12.10
2016,03,19,15,51,12.10
2016,03,19,15,52,12.10
2016,03,19,15,53,12.20
2016,03,19,15,54,12.20
2016,03,19,15,55,12.20
2016,03,19,15,56,12.20
2016,03,19,15,57,12.20
2016,03,19,15,58,12.20
2016,03,19,15,59,12.20
2016,03,19,16,00,12.20
2016,03,19,16,01,12.20
2016,03,19,16,02,12.20
2016,03,19,16,03,12.10
2016,03,19,16,04,12.10
2016,03,19,16,05,12.10
2016,03,19,16,06,12.10
2016,03,19,16,07,12.10
2016,03,19,16,08,12.10
2016,03,19,16,09,12.20
2016,03,19,16,10,12.20
2016,03,19,16,11,12.30
2016,03,19,16,12,12.30
2016,03,19,16,13,12.30
2016,03,19,16,14,12.40
2016,03,19,16,15,12.40
2016,03,19,16,16,12.50
2016,03,19,16,17,12.50
2016,03,19,16,18,12.70
2016,03,19,16,19,12.70
2016,03,19,16,20,12.90
2016,03,19,16,21,12.90
2016,03,19,16,22,12.90
2016,03,19,16,23,12.90
2016,03,19,16,24,13.00
2016,03,19,16,25,13.00
2016,03,19,16,26,13.00
2016,03,19,16,27,12.90
2016,03,19,16,28,12.90
2016,03,19,16,29,12.90
2016,03,19,16,30,12.90
2016,03,19,16,31,12.90
2016,03,19,16,32,12.80
2016,03,19,16,33,12.70
2016,03,19,16,34,12.60
2016,03,19,16,35,12.50
2016,03,19,16,36,12.40
2016,03,19,16,37,12.30
2016,03,19,16,38,12.20
2016,03,19,16,39,12.20
2016,03,19,16,40,12.20
2016,03,19,16,41,12.20
2016,03,19,16,42,12.10
2016,03,19,16,43,12.20
2016,03,19,16,44,12.20
2016,03,19,16,45,12.10
2016,03,19,16,46,12.10
2016,03,19,16,47,12.10
2016,03,19,16,48,12.10
2016,03,19,16,49,12.10
2016,03,19,16,50,12.10
2016,03,19,16,51,12.10
2016,03,19,16,52,12.10
2016,03,19,16,53,12.10
2016,03,19,16,54,12.10
2016,03,19,16,55,12.10
2016,03,19,16,56,12.10
2016,03,19,16,57,12.10
2016,03,19,16,58,12.10
2016,03,19,16,59,12.10
2016,03,19,17,00,12.10
2016,03,19,17,01,12.20
2016,03,19,17,02,12.20
2016,03,19,17,03,12.20
2016,03,19,17,04,12.20
2016,03,19,17,05,12.20
2016,03,19,17,06,12.20
2016,03,19,17,07,12.10
2016,03,19,17,08,12.10
2016,03,19,17,09,12.10
2016,03,19,17,10,12.10
2016,03,19,17,11,12.00
2016,03,19,17,12,11.90
2016,03,19,17,13,11.90
2016,03,19,17,14,11.80
2016,03,19,17,15,11.80
2016,03,19,17,16,11.70
2016,03,19,17,17,11.70
2016,03,19,17,18,11.70
2016,03,19,17,19,11.60
2016,03,19,17,20,11.60
2016,03,19,17,21,11.60
2016,03,19,17,22,11.60
2016,03,19,17,23,11.60
2016,03,19,17,24,11.60
2016,03,19,17,25,11.60
2016,03,19,17,26,11.60
2016,03,19,17,27,11.60
2016,03,19,17,28,11.60
2016,03,19,17,29,11.60
2016,03,19,17,30,11.60
2016,03,19,17,31,11.60
2016,03,19,17,32,11.70
2016,03,19,17,33,11.70
2016,03,19,17,34,11.60
2016,03,19,17,35,11.60
2016,03,19,17,36,11.60
2016,03,19,17,37,11.60
2016,03,19,17,38,11.70
2016,03,19,17,39,11.70
2016,03,19,17,40,11.70
2016,03,19,17,41,11.70
2016,03,19,17,42,11.80
2016,03,19,17,43,11.70
2016,03,19,17,44,11.70
2016,03,19,17,45,11.70
2016,03,19,17,46,11.70
2016,03,19,17,47,11.70
2016,03,19,17,48,11.70
2016,03,19,17,49,11.70